Regional Weather Roundup
Issued by NWS Kansas City/Pleasant Hill, MO

Home | Current Version | Previous Version | Text Only | Print | Product List | Glossary On
Versions: 1 2 3 4 5 6 7 8 9 10 11 12 13 14 15 16 17 18 19 20 21 22 23 24 25 26 27 28 29 30 31 32 33 34 35 36 37 38 39 40 41 42 43 44 45 46 47 48 49 50
000
ASUS43 KEAX 191210
RWREAX

WEATHER ROUNDUP FOR EASTERN KANSAS AND NORTHWEST MISSOURI
NATIONAL WEATHER SERVICE KANSAS CITY/PLEASANT HILL MO
700 AM CDT SUN APR 19 2015

KSZ040-057-103>105-MOZ028-029-037-043-191300-
...KANSAS CITY METROPOLITAN AREA...

CITY           SKY/WX    TMP DP  RH WIND       PRES   REMARKS
K.C. INTL      CLOUDY    53  52  96 W5        29.70S
6HR MIN TEMP:  53; 6HR MAX TEMP:  59; 6HR PCP:  0.28;

K.C. DOWNTOWN  MOCLDY    56  53  90 W3        29.69R
6HR MIN TEMP:  55; 6HR MAX TEMP:  61; 6HR PCP:  0.17;

LEES SUMMIT    CLOUDY    55  53  93 N5        29.69S
6HR MIN TEMP:  54; 6HR MAX TEMP:  59; 6HR PCP:  0.24;

OLATHE - IXD   MOCLDY    53  52  96 NW7       29.70R
6HR MIN TEMP:  51; 6HR MAX TEMP:  59; 6HR PCP:  0.36;

OLATHE - OJC   MOCLDY    53  52  96 N6        29.68R
6HR MIN TEMP:  52; 6HR MAX TEMP:  60; 6HR PCP:  0.12;

LAWRENCE       MOCLDY    53  51  93 NW8       29.70S

$$

MOZ001>008-011>017-020>025-030>033-038>040-044>046-053-054-191300-
...NORTHERN AND CENTRAL MISSOURI...

CITY           SKY/WX    TMP DP  RH WIND       PRES   REMARKS
ST. JOSEPH     LGT RAIN  54  53  97 NW9       29.70F
6HR MIN TEMP:  53; 6HR MAX TEMP:  59; 6HR PCP:  0.27;

MOSBY          CLOUDY    57  55  94 CALM      29.68F
WARRENSBURG    PTCLDY    54  54 100 NE6       29.68F
WHITEMAN AFB   CLOUDY    58  58 100 NW6       29.70S
6HR MIN TEMP:  56; 6HR MAX TEMP:  59;

CLINTON        PTCLDY    54  54 100 NE6       29.69F
SEDALIA        CLOUDY    55  53  93 CALM      29.72S FOG
6HR MIN TEMP:  53; 6HR MAX TEMP:  58;

WARSAW         NOT AVBL
MARSHALL       PTCLDY    57  57 100 CALM      29.72S FOG
CHILLICOTHE      N/A     59  57  93 CALM      29.73F
6HR MIN TEMP:  57; 6HR MAX TEMP:  59; 6HR PCP:  0.06;

MOBERLY        CLEAR     54  50  87 E3        29.72S FOG
KIRKSVILLE     MOCLDY    56  55  97 N5        29.72F
6HR MIN TEMP:  51; 6HR MAX TEMP:  60; 6HR PCP:  0.02;


$$

MOZ041-047>049-056>058-063>065-088>090-097-191300-
...EASTERN AND SOUTHERN MISSOURI...

CITY           SKY/WX    TMP DP  RH WIND       PRES   REMARKS
ST. LOUIS INTL CLOUDY    64  52  64 E8        29.70F
6HR MIN TEMP:  63; 6HR MAX TEMP:  66;

SPIRIT OF STL  CLOUDY    59  57  93 CALM      29.68S FOG
COLUMBIA       CLOUDY    56  55  97 N3        29.70S
JEFFERSON CITY CLOUDY    54  53  97 W3        29.70S
MEXICO         CLEAR    N/A N/A N/A CALM      29.70F HAZE
HANNIBAL       CLEAR     57  55  94 NE3       29.71S
ROLLA          LGT RAIN  59  57  93 NE6       29.69F FOG
OSAGE BEACH    CLOUDY    55  54  94 NW3       29.70S
SPRINGFIELD    CLEAR     53  50  89 NW5       29.70F
BRANSON        MOCLDY    55  54  94 N7        29.71F
NEVADA         MOCLDY    52  50  93 CALM      29.70S
JOPLIN         MOCLDY    53  50  89 VRB6      29.69F
WEST PLAINS    RAIN      60  57  89 CALM      29.69F FOG

$$

IAZ060-094-KSZ022-034>040-054-083-096-NEZ052-066-093-191300-
...KANSAS...SOUTHEAST NEBRASKA AND IOWA...

CITY           SKY/WX    TMP DP  RH WIND       PRES   REMARKS
TOPEKA         CLOUDY    53  52  96 W6        29.72S
6HR MIN TEMP:  53; 6HR MAX TEMP:  57; 6HR PCP:  0.06;

MANHATTAN      CLOUDY    53  51  93 VRB3      29.75R
EMPORIA        CLOUDY    51  50  96 NW6       29.72S
CHANUTE        CLOUDY    53  52  96 CALM      29.70F
WICHITA        CLOUDY    51  50  96 NW8       29.76R
OMAHA          FOG       56  56 100 E5        29.72F VSB 1/8
LINCOLN        LGT RAIN  54  51  90 W7        29.76R
FALLS CITY     LGT RAIN  54  51  90 W9        29.72S
LAMONI         FOG       59  57  93 NE5       29.73S VSB 1/4
DES MOINES     LGT RAIN  58  56  93 E5        29.74F FOG

$$




USA.gov is the U.S. government's official web portal to all federal, state and local government web resources and services.